Lexington Weather

Lexington, Massachusetts, USA

35°F
10/30/2020 5:38am 
  • Lexington Conditions: Overcast
  • Temperature: 35.4°F / 1.9°CColder 0.9°F than last hour.
  • Dew Point: 34.7°FDecreased 0.9°Fsince last hour.
  • Relative Humidity: 97
  • Wind: Wind from N N 1 mph, 10-min avg: 2 mph, gust: 4 mph
  • Barometer: 29.76 in Steady
  • Visibility: 10 miles
  • Rain Today: 0.08 in
  •   
Southeast Middlesex County - Winter Weather Advisory
 - SEE ALL NEARBY ALERTS -

Regional Weather Roundup
for Boston / Norton, MA

        
000
ASUS41 KBOX 281904
RWRBOX

REGIONAL WEATHER ROUNDUP
NATIONAL WEATHER SERVICE BOSTON/NORTON MA
300 PM EDT WED OCT 28 2020

NOTE:  "FAIR" INDICATES FEW OR NO CLOUDS BELOW 12,000 FEET WITH NO 
SIGNIFICANT WEATHER AND/OR OBSTRUCTIONS TO VISIBILITY.

MAZALL-282000-
EASTERN MASSACHUSETTS
  
CITY           SKY/WX    TMP DP  RH WIND       PRES   REMARKS
BOSTON         DRIZZLE   50  49  96 SE8       29.95F FOG              
BEVERLY        LGT RAIN  50  48  93 E7        29.95F FOG              
LAWRENCE       LGT RAIN  47  45  93 N6        29.98F VSB 1            
BEDFORD        CLOUDY    49  48  97 N5        29.94F FOG              
BLUE HILL        N/A     48  48 100 E6        29.92F                  
NORWOOD        CLOUDY    52  49  89 CALM      29.94F FOG              
MARSHFIELD     PTSUNNY   52  52 100 SE6       29.94F FOG              
PLYMOUTH       CLOUDY    51  49  92 E7        29.94F                  
TAUNTON        CLOUDY    53  50  89 CALM      29.93F                  
NEW BEDFORD    CLOUDY    53  51  93 E6        29.92F                  
$$

MAZALL-282000-
CAPE COD AND THE ISLANDS
  
CITY           SKY/WX    TMP DP  RH WIND       PRES   REMARKS
FALMOUTH       DRIZZLE   48  48 100 SE9       29.95F                  
HYANNIS        LGT RAIN  53  52  96 E3        29.93F FOG              
CHATHAM        LGT RAIN  52  51  97 E6        29.95F FOG              
PROVINCETOWN   LGT RAIN  50  50 100 SE8       29.96F FOG              
NANTUCKET      LGT RAIN  55  53  93 SE12      29.92F FOG              
MARTHAS VNYRD  LGT RAIN  55  55 100 NE5       29.92F FOG              
$$
 
MAZALL-282000-
CENTRAL AND WESTERN MASSACHUSETTS
  
CITY           SKY/WX    TMP DP  RH WIND       PRES   REMARKS
WORCESTER      FOG       45  43  93 CALM      29.93F VSB 1/2          
FITCHBURG      LGT RAIN  46  44  93 NE3       29.96F FOG              
ORANGE         CLOUDY    46  44  93 CALM      29.96F                  
SPRINGFIELD    CLOUDY    48  46  94 CALM      29.94F                  
WESTFIELD      CLOUDY    48  46  93 CALM      29.95F                  
NORTH ADAMS    CLOUDY    48  44  86 CALM      29.95S                  
PITTSFIELD     CLOUDY    48  45  89 VRB3      29.92F                  
$$
 
RIZALL-282000-
RHODE ISLAND
  
CITY           SKY/WX    TMP DP  RH WIND       PRES   REMARKS
PROVIDENCE     CLOUDY    51  50  96 NE6       29.94F FOG              
NEWPORT        CLOUDY    53  52  96 N5        29.92F                  
BLOCK ISLAND   CLOUDY    57  56  96 N5        29.92F                  
SMITHFIELD     CLOUDY    49  49 100 E6        29.93F FOG              
WESTERLY       CLOUDY    54  52  93 VRB3      29.94F                  
$$
 
CTZALL-282000-
CONNECTICUT
  
CITY           SKY/WX    TMP DP  RH WIND       PRES   REMARKS
BRADLEY INTL   CLOUDY    50  45  83 CALM      29.94F                  
HARTFORD       CLOUDY    51  46  83 CALM      29.95F                  
BRIDGEPORT     CLOUDY    54  50  86 CALM      29.95F                  
DANBURY        CLOUDY    52  50  93 CALM      29.96F                  
GROTON         CLOUDY    52  50  93 N7        29.93F                  
NEW HAVEN      CLOUDY    54  51  90 N5        29.94F                  
CHESTER        CLOUDY    52  50  93 MISG      29.93F                  
MERIDEN        CLOUDY    51  46  83 CALM      29.95F                  
WILLIMANTIC    CLOUDY    51  48  89 CALM      29.94F                  
OXFORD         CLOUDY    50  49  96 VRB3      29.95F                  
$$

MEZ002-015-021-024-NHZ003-005-008-011-012-014-VTZ005-008-282000-
NORTHERN NEW ENGLAND
  
CITY           SKY/WX    TMP DP  RH WIND       PRES   REMARKS
PORTLAND ME    CLOUDY    40  39  97 N6        30.01F FOG              
BANGOR ME      CLOUDY    37  25  61 S6        30.03F                  
CONCORD NH     LGT RAIN  44  41  89 N3        29.98S FOG              
MANCHESTER NH  LGT RAIN  45  42  89 N3        29.96F FOG              
NASHUA NH      LGT RAIN  44  44 100 NW3       29.97F FOG              
PORTSMOUTH NH  LGT RAIN  45  44  96 NE3       29.96F VSB 1            
JAFFREY NH     CLOUDY    44  42  93 CALM      29.95F                  
KEENE NH       CLOUDY    46  44  93 CALM      29.96F                  
BURLINGTON VT  PTSUNNY   50  40  68 S15       29.91F                  
MT. WASHINGTON FOG       25  25 100 W36         N/A  VSB 1/16WCI   7  
$$

NYZ052-076-282000-
EASTERN NEW YORK
  
CITY           SKY/WX    TMP DP  RH WIND       PRES   REMARKS
ALBANY         DRIZZLE   46  46 100 CALM      29.96F FOG              
NEW YORK CITY  PTSUNNY   56  51  84 W7        29.96F                  
$$
 
ANZALL-282000-
MARINE OBSERVATIONS
  
STATION/POSITION TIME  TEMP    WIND        PRES    VSBY  WAVE
                       AIR SEA DIR/SP/G                  HT/PER
                 (UTC) (F)     (DEG/KT/KT) (MB)    (MI)  (FT/S)
BOSTON BUOY      NOT AVBL
BUZZARDS BAY     1800           70/ 12/ 13 1014.9F
NANTUCKET SOUND  1850      60  110/ 12/ 14   N/A           2/ 3
MASS BAY-STELLWA 1804   50 56  120/ 12/ 14 1014.8F  1 7/8  3/ 8
ISLE OF SHOALS   1800   46      90/  4/  5 1015.7F
S OF BLOCK IS    1826      62                N/A           3/ 8
$$

......................KEY.........................
  SKY/WX - SKY CONDITION/PRESENT WEATHER
  TMP    - TEMPERATURE IN FAHRENHEIT
  DWPT   - DEWPOINT IN FAHRENHEIT
  RH     - RELATIVE HUMIDITY IN PERCENT
  WIND   - DIRECTION AND SPEED IN MPH
  PRES   - MEAN SEA LEVEL PRESSURE IN INCHES OF HG
  WCI    - WIND CHILL INDEX
  VSB    - VISIBILITY IN MILES
  HX     - HEAT INDEX
  TC     - TEMPERATURE IN CELSIUS
  VRB    - VARIABLE WIND DIRECTION
  N/A    - NOT AVAILABLE
  
      

Other recent Regional Weather Roundups

Fri Oct 30, 5:04am

Fri Oct 30, 4:04am

Fri Oct 30, 3:04am

Fri Oct 30, 2:04am

Fri Oct 30, 1:04am

Fri Oct 30, 12:04am

Thu Oct 29, 11:04pm

Thu Oct 29, 10:04pm

Thu Oct 29, 9:04pm

Thu Oct 29, 8:04pm

Thu Oct 29, 7:04pm

Thu Oct 29, 6:04pm

Thu Oct 29, 5:05pm

Thu Oct 29, 4:05pm

Thu Oct 29, 3:05pm

Thu Oct 29, 2:04pm

Thu Oct 29, 1:04pm

Thu Oct 29, 12:04pm

Thu Oct 29, 11:04am

Thu Oct 29, 10:04am

Thu Oct 29, 9:04am

Thu Oct 29, 8:04am

Thu Oct 29, 7:04am

Thu Oct 29, 6:04am

Thu Oct 29, 5:04am

Thu Oct 29, 4:04am

Thu Oct 29, 3:04am

Thu Oct 29, 2:04am

Thu Oct 29, 1:05am

Thu Oct 29, 12:04am

Wed Oct 28, 11:05pm

Wed Oct 28, 10:04pm

Wed Oct 28, 9:04pm

Wed Oct 28, 8:04pm

Wed Oct 28, 7:05pm

Wed Oct 28, 6:04pm

Wed Oct 28, 5:05pm

Wed Oct 28, 4:04pm

Wed Oct 28, 2:04pm

Wed Oct 28, 1:05pm

Wed Oct 28, 12:05pm

Wed Oct 28, 11:05am

Wed Oct 28, 10:04am

Wed Oct 28, 9:04am

Wed Oct 28, 8:04am

Wed Oct 28, 7:04am

Wed Oct 28, 6:04am

Wed Oct 28, 5:05am

Wed Oct 28, 4:04am

Wed Oct 28, 3:04am

Wed Oct 28, 2:04am

Wed Oct 28, 1:05am

Wed Oct 28, 12:04am

Tue Oct 27, 11:04pm

Tue Oct 27, 10:04pm

Tue Oct 27, 9:05pm

Tue Oct 27, 8:04pm

Tue Oct 27, 7:04pm

Tue Oct 27, 6:04pm

Tue Oct 27, 5:04pm

Tue Oct 27, 4:05pm

Tue Oct 27, 3:04pm

Tue Oct 27, 2:04pm

Tue Oct 27, 1:04pm

Tue Oct 27, 12:04pm

Tue Oct 27, 11:04am

Tue Oct 27, 10:04am

Tue Oct 27, 9:04am

Tue Oct 27, 8:04am

Tue Oct 27, 7:04am

Tue Oct 27, 6:04am

Tue Oct 27, 5:04am

Tue Oct 27, 4:04am

Tue Oct 27, 3:04am

Tue Oct 27, 2:05am

Tue Oct 27, 1:04am

Tue Oct 27, 12:04am

Mon Oct 26, 11:05pm

Mon Oct 26, 10:04pm

Mon Oct 26, 9:04pm

Mon Oct 26, 8:04pm

Mon Oct 26, 7:04pm

Mon Oct 26, 6:04pm

Mon Oct 26, 5:04pm

Mon Oct 26, 4:05pm

Mon Oct 26, 2:04pm

Mon Oct 26, 1:04pm

Mon Oct 26, 12:04pm

Mon Oct 26, 11:05am

Mon Oct 26, 10:04am

Mon Oct 26, 9:04am

Mon Oct 26, 8:04am

Mon Oct 26, 7:04am

Mon Oct 26, 6:04am

Mon Oct 26, 5:04am

Mon Oct 26, 4:04am

Mon Oct 26, 3:04am

Mon Oct 26, 2:04am

Mon Oct 26, 1:04am

Mon Oct 26, 12:04am

Sun Oct 25, 11:05pm

Sun Oct 25, 10:04pm

Sun Oct 25, 9:04pm

Sun Oct 25, 8:04pm

Sun Oct 25, 7:04pm

Sun Oct 25, 6:04pm

Sun Oct 25, 5:04pm

Sun Oct 25, 4:05pm

Sun Oct 25, 3:04pm

Sun Oct 25, 2:04pm

Sun Oct 25, 1:04pm

Sun Oct 25, 12:04pm

Sun Oct 25, 11:04am

Sun Oct 25, 10:04am

Sun Oct 25, 9:04am

Sun Oct 25, 8:04am

Sun Oct 25, 7:04am

Sun Oct 25, 6:04am

Sun Oct 25, 5:04am

Sun Oct 25, 4:04am

Sun Oct 25, 3:04am

Sun Oct 25, 2:04am

Sun Oct 25, 1:05am

Sun Oct 25, 12:04am

Sat Oct 24, 11:04pm

Sat Oct 24, 10:04pm

Sat Oct 24, 9:04pm

Sat Oct 24, 8:04pm

Sat Oct 24, 7:04pm

Sat Oct 24, 6:04pm

Sat Oct 24, 5:05pm

Sat Oct 24, 4:04pm

Sat Oct 24, 3:04pm

Sat Oct 24, 2:04pm

Sat Oct 24, 1:05pm

Sat Oct 24, 12:04pm

Sat Oct 24, 11:05am

Sat Oct 24, 10:05am

Sat Oct 24, 9:04am

Sat Oct 24, 8:04am

Sat Oct 24, 7:04am

Sat Oct 24, 6:04am

Sat Oct 24, 5:04am

Sat Oct 24, 4:04am

Sat Oct 24, 3:04am

Sat Oct 24, 2:04am

Sat Oct 24, 1:05am

Sat Oct 24, 12:04am

Fri Oct 23, 11:04pm

Fri Oct 23, 10:04pm

Fri Oct 23, 9:04pm

Fri Oct 23, 8:05pm

Fri Oct 23, 7:04pm

Fri Oct 23, 6:04pm

Fri Oct 23, 5:05pm

Fri Oct 23, 4:04pm

Fri Oct 23, 3:04pm

Fri Oct 23, 2:05pm

Fri Oct 23, 1:04pm

Fri Oct 23, 12:04pm

Fri Oct 23, 11:04am

Fri Oct 23, 10:04am

Fri Oct 23, 9:04am

Fri Oct 23, 8:04am

Fri Oct 23, 7:04am

Fri Oct 23, 6:04am

Meta data:

ID: 9836378b-9656-484c-8477-a3b257797f97
Link: https://api.weather.gov/products/9836378b-9656-484c-8477-a3b257797f97